Location: Ellerstadt
(49.4644°N, 8.2615°E)
Time: 18:52:53
(UTC+00:00)

A-11 Canister half - All Passes

Search period start: 18 June 2021 00:00
Search period end: 28 June 2021 00:00
Orbit: 1513 x 1686 km, 47.2° (Epoch: 18 June)

Date Brightness Start Highest point End Pass type
(mag) Time Alt. Az. Time Alt. Az. Time Alt. Az.
18 Jun - 01:53:43 10° SE 01:57:18 12° ESE 02:00:50 10° ESE visible
18 Jun - 03:51:07 10° SSW 04:00:09 40° SE 04:08:54 10° ENE daylight
18 Jun - 05:54:26 10° WSW 06:04:17 72° SSE 06:13:46 10° E daylight
18 Jun - 07:59:18 10° W 08:09:03 77° S 08:18:26 10° ESE daylight
18 Jun - 10:04:19 10° WNW 10:13:19 47° SSW 10:22:03 10° SE daylight
18 Jun - 12:10:56 10° W 12:16:17 17° SW 12:21:35 10° SSW daylight
19 Jun - 01:31:53 10° SE 01:34:31 11° ESE 01:37:06 10° ESE visible
19 Jun - 03:28:21 10° SSW 03:37:17 38° SE 03:45:58 10° ENE daylight
19 Jun - 05:31:30 10° WSW 05:41:22 71° SSE 05:50:53 10° E daylight
19 Jun - 07:36:21 10° W 07:46:08 77° S 07:55:33 10° ESE daylight
19 Jun - 09:41:22 10° WNW 09:50:28 49° SSW 09:59:16 10° SE daylight
19 Jun - 11:47:44 10° W 11:53:31 18° SW 11:59:12 10° SSW daylight
20 Jun - 01:10:59 10° SE 01:11:44 10° ESE 01:12:29 10° ESE visible
20 Jun - 03:05:35 10° SSW 03:14:25 37° SE 03:23:01 10° ENE daylight
20 Jun - 05:08:34 10° WSW 05:18:27 69° SSE 05:27:58 10° E daylight
20 Jun - 07:13:23 10° W 07:23:13 78° S 07:32:40 10° ESE daylight
20 Jun - 09:18:24 10° WNW 09:27:36 51° SSW 09:36:30 10° SE daylight
20 Jun - 11:24:35 10° W 11:30:43 20° SW 11:36:47 10° S daylight
21 Jun - 02:42:51 10° SSW 02:51:34 35° SE 03:00:03 10° E daylight
21 Jun - 04:45:39 10° WSW 04:55:32 68° SSE 05:05:04 10° E daylight
21 Jun - 06:50:25 10° W 07:00:17 79° S 07:09:46 10° ESE daylight
21 Jun - 08:55:26 10° WNW 09:04:44 53° SSW 09:13:41 10° SE daylight
21 Jun - 11:01:27 10° W 11:07:57 21° SW 11:14:19 10° S daylight
22 Jun - 02:20:07 10° SSW 02:28:42 33° SE 02:37:05 10° E visible
22 Jun - 04:22:43 10° WSW 04:32:36 66° SSE 04:42:10 10° E daylight
22 Jun - 06:27:27 10° W 06:37:22 79° S 06:46:53 10° E daylight
22 Jun - 08:32:28 10° WNW 08:41:51 55° SSW 08:50:54 10° SE daylight
22 Jun - 10:38:20 10° W 10:45:09 23° SW 10:51:50 10° S daylight
23 Jun - 01:57:24 10° SSW 02:05:51 32° SE 02:14:06 10° E visible
23 Jun - 03:59:49 10° WSW 04:09:42 65° SSE 04:19:15 10° E daylight
23 Jun - 06:04:29 10° W 06:14:26 79° S 06:23:59 10° E daylight
23 Jun - 08:09:31 10° WNW 08:18:59 57° SSW 08:28:05 10° SE daylight
23 Jun - 10:15:15 10° W 10:22:21 24° SW 10:29:18 10° S daylight
24 Jun - 01:34:43 10° SSW 01:43:00 30° SE 01:51:07 10° E visible
24 Jun - 03:36:54 10° SW 03:46:47 63° SSE 03:56:20 10° E daylight
24 Jun - 05:41:31 10° W 05:51:30 80° S 06:01:06 10° E daylight
24 Jun - 07:46:33 10° W 07:56:06 59° SSW 08:05:16 10° SE daylight
24 Jun - 09:52:10 10° W 09:59:33 26° SW 10:06:44 10° S daylight
25 Jun - 01:12:03 10° S 01:20:09 29° SE 01:28:07 10° E visible
25 Jun - 03:14:00 10° SW 03:23:52 62° SSE 03:33:26 10° E daylight
25 Jun - 05:18:34 10° W 05:28:33 80° S 05:38:11 10° E daylight
25 Jun - 07:23:36 10° W 07:33:12 61° SSW 07:42:26 10° SE daylight
25 Jun - 09:29:07 10° W 09:36:44 27° SW 09:44:09 10° S daylight
26 Jun - 00:49:23 10° S 00:57:19 27° SE 01:05:05 10° E visible
26 Jun - 02:51:07 10° SW 03:00:57 60° SSE 03:10:31 10° E daylight
26 Jun - 04:55:36 10° W 05:05:37 80° S 05:15:17 10° E daylight
26 Jun - 07:00:38 10° W 07:10:18 63° SSW 07:19:36 10° SE daylight
26 Jun - 09:06:05 10° W 09:13:55 29° SW 09:21:33 10° S daylight
27 Jun - 00:26:45 10° S 00:34:28 25° SE 00:42:03 10° E visible
27 Jun - 02:28:13 10° SW 02:38:02 58° SSE 02:47:36 10° ENE visible
27 Jun - 04:32:37 10° W 04:42:41 79° S 04:52:22 10° E daylight
27 Jun - 06:37:40 10° W 06:47:25 65° SSW 06:56:46 10° ESE daylight
27 Jun - 08:43:03 10° W 08:51:06 31° SW 08:58:55 10° SSE daylight
